Observations for Trim Market St
| Time | AQI | Temp °C | Hum % | Pres Pa | CO μg/m³ | H₂S μg/m³ | NO μg/m³ | NO₂ μg/m³ | O₃ μg/m³ | SO₂ μg/m³ | PM1 μg/m³ | PM2.5 μg/m³ | PM10 μg/m³ |
|---|---|---|---|---|---|---|---|---|---|---|---|---|---|
| Saturday 11 July 2026 | |||||||||||||
| 05:39 | 1 | 16.2 | 69 | 56,821 | 0.11 | 0 | 0.8 | 0.68 | 10.15 | 0 | 0.71 | 2.14 | 3.72 |
| 05:38 | 1 | 16.3 | 69 | 56,835 | 0.11 | 0 | 0 | 3.76 | 27.48 | 0 | 0 | 1.66 | 3.08 |
| 05:37 | 1 | 16.3 | 69 | 56,845 | 0.09 | 0 | 0 | 3.36 | 22.55 | 0 | 0 | 1.66 | 3.72 |
| 05:36 | 1 | 16.3 | 69 | 56,853 | 0.08 | 0 | 0.49 | 0.36 | 18.95 | 0 | 0.71 | 2.63 | 4.35 |
| 05:33 | 1 | 16.3 | 68 | 56,863 | 0.1 | 0 | 0 | 3.77 | 30.27 | 0 | 0.71 | 2.15 | 3.72 |
| 05:29 | 1 | 16.3 | 68 | 56,880 | 0.07 | 0 | 0 | 1.68 | 18.31 | 0 | 0 | 1.66 | 3.08 |
| 05:25 | 1 | 16.3 | 68 | 56,912 | 0.09 | 0 | 0 | 0.68 | 15.9 | 0 | 0 | 2.64 | 4.35 |
| 05:21 | 1 | 16.3 | 68 | 56,915 | 0.11 | 0 | 0 | 0 | 18.6 | 0 | 0.71 | 3.13 | 4.98 |
| 05:19 | 1 | 16.3 | 68 | 56,907 | 0.09 | 0 | 2.68 | 0 | 14.32 | 0 | 0 | 1.18 | 2.43 |
| 05:18 | 1 | 16.3 | 68 | 56,906 | 0.11 | 0 | 0.32 | 0.28 | 18.46 | 0 | 0 | 1.66 | 4.35 |
| 05:17 | 1 | 16.3 | 68 | 56,901 | 0.12 | 0 | 0 | 1.19 | 19.63 | 0 | 0.71 | 1.67 | 3.07 |
| 05:16 | 1 | 16.3 | 68 | 56,898 | 0.09 | 0 | 0 | 0 | 14.31 | 0 | 0 | 1.66 | 3.08 |
| 05:15 | 1 | 16.3 | 68 | 56,895 | 0.09 | 0 | 0 | 0 | 12.07 | 0 | 0.71 | 2.15 | 4.35 |
| 05:14 | 1 | 16.3 | 68 | 56,892 | 0.09 | 0 | 0 | 1.99 | 18.35 | 0 | 0.71 | 2.16 | 3.71 |
| 05:12 | 1 | 16.3 | 68 | 56,894 | 0.1 | 0 | 0 | 0 | 14.26 | 0 | 0.71 | 1.66 | 3.08 |
| 05:11 | 1 | 16.3 | 68 | 56,889 | 0.09 | 0 | 0 | 0 | 14.7 | 0 | 0 | 1.18 | 2.44 |
| 05:10 | 1 | 16.4 | 68 | 56,888 | 0.1 | 0 | 0.86 | 1.26 | 18.98 | 0 | 0 | 1.66 | 3.08 |
| 05:08 | 1 | 16.4 | 68 | 56,888 | 0.1 | 0 | 0 | 0 | 13.39 | 0 | 0 | 1.67 | 3.07 |
| 05:01 | 1 | 16.4 | 68 | 56,901 | 0.07 | 0 | 0 | 1.87 | 18.41 | 0 | 0 | 1.18 | 3.71 |
| 05:00 | 1 | 16.4 | 68 | 56,904 | 0.06 | 0 | 0.52 | 0 | 16.02 | 0 | 0 | 1.66 | 3.71 |